Location: Newark
(47.5989°N, 4.6950°E)
Time: 08:53:49
(UTC+00:00)

Envisat - Pass Details

Date: 16 November 2019
Orbit: 764 x 766 km, 98.1° (Epoch: 08 December)

Event Time Altitude Azimuth Distance (km) Brightness Sun altitude
Rises 06:09:27 0° 18° (NNE) 3,243 6.2 -6.6°
Reaches altitude 10° 06:11:52 10° 25° (NNE) 2,312 5.6 -6.3°
Maximum altitude 06:16:46 46° 98° (E) 1,025 4.3 -5.5°
Drops below altitude 10° 06:21:37 10° 172° (S) 2,295 5.9 -4.7°
Sets 06:24:00 0° 178° (S) 3,216 6.6 -4.4°
